Home > Weather > Petersburg > Past weeks

Flag for USA Weather for the Past 2 Weeks in Petersburg, Indiana, USA

Now
46 °F

Overcast.


Feels Like: 42 °F
Forecast: 43 / 62 °F
Wind: 9 mph from North

Location: Huntingburg Airport

Current Time: May 5, 2016 at 10:21:13 AM

Latest Report: May 5, 2016 at 9:55 AM


Visibility: 10 mi

Pressure: 29.88 "Hg

Humidity: 71%

Dew Point: 37 °F

Location of PetersburgLocation

Historic Weather in Petersburg — Graph

°F

Petersburg Temperature Yesterday

Maximum temperature yesterday: 63 °F (at 3:15 PM)
Minimum temperature yesterday: 48 °F (at 3:55 AM)
Average temperature yesterday: 53 °F

High & Low Weather Summary for the Past Weeks

 TemperatureHumidityPressure
High82 °F (Apr 20, 3:55 PM)94% (Apr 21, 1:15 PM)30.16 "Hg (Apr 21, 1:15 PM)
Low45 °F (Apr 24, 5:55 AM)28% (Apr 20, 3:55 PM)29.71 "Hg (Apr 26, 6:55 PM)
Average62 °F74%29.92 "Hg
* Reported Apr 20 9:15 AM — May 5 9:15 AM, Petersburg, Weather by CustomWeather, © 2016

Note: Actual official high and low records may vary slightly from our data, if they occured in-between our weather recording intervals... More about our weather records

Advertising

Petersburg Weather History for the Previous 24 Hours

Scroll right to see more
 ConditionsComfort  
Time TempWeatherWind HumidityBarometerVisibility
9:15 AM
Thu, May 5
46 °FOvercast.10 mph71%29.86 "Hg10 mi
8:55 AM46 °FOvercast.8 mph71%29.86 "Hg10 mi
8:35 AM46 °FMostly cloudy.6 mph71%29.84 "Hg10 mi
8:15 AM45 °FOvercast.9 mph76%29.83 "Hg10 mi
7:55 AM45 °FOvercast.10 mph76%29.83 "Hg10 mi
7:35 AM46 °FOvercast.10 mph71%29.81 "Hg10 mi
7:15 AM46 °FMostly cloudy.9 mph71%29.80 "Hg10 mi
6:55 AM45 °FPartly cloudy.14 mph76%29.79 "Hg10 mi
6:35 AM46 °FPassing clouds.10 mph71%29.79 "Hg10 mi
6:15 AM46 °FPassing clouds.10 mph71%29.77 "Hg10 mi
5:55 AM46 °FOvercast.13 mph71%29.77 "Hg10 mi
5:35 AM48 °FOvercast.10 mph76%29.77 "Hg10 mi
5:15 AM48 °FOvercast.9 mph82%29.78 "Hg10 mi
4:55 AM48 °FMostly cloudy.8 mph82%29.78 "Hg10 mi
4:35 AM48 °FMostly cloudy.8 mph82%29.77 "Hg10 mi
4:15 AM48 °FOvercast.8 mph82%29.77 "Hg10 mi
3:55 AM48 °FOvercast.7 mph82%29.78 "Hg10 mi
3:35 AM48 °FMostly cloudy.6 mph82%29.79 "Hg10 mi
3:15 AM48 °FPartly cloudy.5 mph82%29.79 "Hg10 mi
2:55 AM48 °FOvercast.7 mph82%29.79 "Hg10 mi
2:35 AM48 °FOvercast.5 mph82%29.80 "Hg10 mi
2:15 AM48 °FOvercast.No wind82%29.81 "Hg10 mi
1:55 AM48 °FOvercast.3 mph82%29.82 "Hg10 mi
1:35 AM48 °FOvercast.3 mph76%29.82 "Hg10 mi
1:15 AM48 °FOvercast.No wind82%29.82 "Hg10 mi
12:55 AM48 °FOvercast.5 mph76%29.83 "Hg10 mi
12:35 AM46 °FOvercast.5 mph76%29.83 "Hg10 mi
12:15 AM48 °FOvercast.No wind66%29.83 "Hg10 mi
11:55 PM
Wed, May 4
48 °FOvercast.5 mph66%29.84 "Hg10 mi
11:35 PM50 °FOvercast.3 mph62%29.85 "Hg10 mi
11:15 PM50 °FOvercast.5 mph62%29.85 "Hg10 mi
10:55 PM50 °FPassing clouds.7 mph62%29.85 "Hg10 mi
10:35 PM50 °FPassing clouds.8 mph62%29.85 "Hg10 mi
10:15 PM52 °FClear.9 mph58%29.84 "Hg10 mi
9:55 PM52 °FClear.13 mph58%29.83 "Hg10 mi
9:35 PM52 °FScattered clouds.9 mph62%29.83 "Hg10 mi
9:15 PM54 °FOvercast.10 mph58%29.82 "Hg10 mi
8:55 PM54 °FPartly sunny.13 mph58%29.81 "Hg10 mi
8:35 PM55 °FPartly sunny.10 mph55%29.81 "Hg10 mi
8:15 PM55 °FOvercast.14 mph55%29.80 "Hg10 mi
7:55 PM55 °FOvercast.18 mph59%29.79 "Hg10 mi
7:35 PM55 °FMostly cloudy.13 mph63%29.78 "Hg10 mi
7:15 PM57 °FMostly cloudy.13 mph59%29.77 "Hg10 mi
6:55 PM59 °FMore clouds than sun.9 mph55%29.77 "Hg10 mi
6:35 PM57 °FBroken clouds.10 mph59%29.77 "Hg10 mi
6:15 PM59 °FMostly cloudy.13 mph55%29.77 "Hg10 mi
5:55 PM61 °FPartly sunny.23 mph52%29.76 "Hg10 mi
5:35 PM61 °FPartly sunny.13 mph55%29.74 "Hg10 mi
5:15 PM61 °FScattered clouds.14 mph52%29.74 "Hg10 mi
4:55 PM61 °FScattered clouds.15 mph52%29.73 "Hg10 mi
4:35 PM61 °FPartly sunny.12 mph59%29.73 "Hg10 mi
4:15 PM57 °FMostly cloudy.10 mph63%29.73 "Hg10 mi
3:55 PM59 °FMostly cloudy.15 mph55%29.73 "Hg10 mi
3:35 PM63 °FBroken clouds.15 mph56%29.72 "Hg10 mi
3:15 PM63 °FScattered clouds.17 mph56%29.71 "Hg10 mi
2:55 PM61 °FThunderstorms. Broken clouds.12 mph68%29.71 "Hg10 mi
2:35 PM57 °FBroken clouds.9 mph72%29.71 "Hg10 mi
2:15 PM61 °FBroken clouds.9 mph72%29.71 "Hg10 mi
1:55 PM61 °FBroken clouds.10 mph72%29.72 "Hg10 mi
1:35 PM59 °FBroken clouds.7 mph82%29.73 "Hg10 mi
1:15 PM55 °FCloudy.8 mph82%29.73 "Hg10 mi
12:55 PM55 °FMostly cloudy.10 mph82%29.73 "Hg10 mi
12:35 PM55 °FOvercast.9 mph82%29.73 "Hg10 mi
12:15 PM55 °FCloudy.8 mph88%29.72 "Hg10 mi
11:55 AM54 °FCloudy.10 mph88%29.72 "Hg10 mi
11:35 AM52 °FMostly cloudy.9 mph88%29.72 "Hg10 mi
11:15 AM52 °FBroken clouds.6 mph88%29.72 "Hg10 mi
10:55 AM52 °FCloudy.7 mph82%29.72 "Hg10 mi
10:35 AM50 °FMostly cloudy.5 mph88%29.73 "Hg7 mi
10:15 AM50 °FCloudy.No wind88%29.74 "Hg4 mi
Weather by CustomWeather, © 2016

See weather overviewHow to use our weather pages